Flag for U.S.A. Weather past 2 weeks in Syracuse, New York, U.S.A.

Now
56 °F

Light rain. Overcast.


Feels Like: 56 °F
Forecast: 51 / 64 °F
Wind: No wind

Location: Syracuse Hancock International Airport

Current Time: Sep 16, 2014 at 4:05:55 AM

Latest Report: Sep 16, 2014 at 2:54 AM


Visibility: 7 mi

Pressure: 30.01 "Hg

Humidity: 93%

Dew point: 54 °F

Location of SyracuseLocation

Historic Weather in Syracuse — Graph

°F

Syracuse temperature yesterday

Maximum temperature yesterday: 69 °F (at 2:54 PM)
Minimum temperature yesterday: 45 °F (at 6:54 AM)
Average temperature yesterday: 58 °F

Past Weeks' High & Low Weather Summary

 TemperatureHumidityPressure
High90 °F (Sep 5, 2:54 PM)100% (Sep 2, 9:54 PM)30.34 "Hg (Sep 2, 9:54 PM)
Low44 °F (Sep 13, 3:54 AM)38% (Sep 7, 2:54 PM)29.63 "Hg (Sep 11, 8:54 AM)
Average66 °F72%30.06 "Hg
* Reported Sep 1 2:54 AM — Sep 16 2:54 AM, Syracuse, Weather by CustomWeather, © 2014

Note: Actual official high and low records may vary slightly from our data, if they occured in-between our weather recording intervals... More about our weather records

Advertising

Syracuse weather history for previous 24 hours

 ConditionsComfort  
Time TempWeatherWind HumidityBarometerVisibility
2:54 AM
Sep 16
56 °FLight rain. Overcast.No wind93%30.01 "Hg7 mi
1:54 AM57 °FRain. Fog.6 mph90%30.03 "Hg4 mi
12:54 AM57 °FLight rain. Overcast.No wind90%30.01 "Hg10 mi
11:54 PM
Sep 15
58 °FMostly cloudy.5 mph90%30.01 "Hg10 mi
10:54 PM58 °FLight rain. Mostly cloudy.5 mph90%30.04 "Hg10 mi
9:54 PM58 °FLight rain. Fog.No wind87%30.06 "Hg6 mi
8:54 PM61 °FLight rain. Mostly cloudy.No wind70%30.05 "Hg10 mi
7:54 PM61 °FCloudy.5 mph70%30.05 "Hg10 mi
6:54 PM62 °FMostly cloudy.6 mph65%30.06 "Hg10 mi
5:54 PM67 °FPartly sunny.5 mph47%30.08 "Hg10 mi
4:54 PM68 °FBroken clouds.5 mph47%30.07 "Hg10 mi
3:54 PM69 °FBroken clouds.8 mph42%30.09 "Hg10 mi
2:54 PM69 °FScattered clouds.7 mph41%30.10 "Hg10 mi
1:54 PM68 °FScattered clouds.7 mph40%30.14 "Hg10 mi
12:54 PM68 °FBroken clouds.6 mph44%30.16 "Hg10 mi
11:54 AM66 °FScattered clouds.5 mph49%30.17 "Hg10 mi
10:54 AM63 °FScattered clouds.3 mph56%30.20 "Hg10 mi
9:54 AM59 °FScattered clouds.7 mph64%30.21 "Hg10 mi
8:54 AM52 °FBroken clouds.5 mph77%30.22 "Hg10 mi
7:54 AM48 °FPartly sunny.5 mph83%30.23 "Hg10 mi
6:54 AM45 °FPassing clouds.3 mph90%30.23 "Hg10 mi
5:54 AM47 °FPassing clouds.7 mph86%30.22 "Hg10 mi
4:54 AM49 °FPassing clouds.3 mph90%30.22 "Hg10 mi
Weather by CustomWeather, © 2014

See weather overviewHow to use our weather pages